Location: Sibbertoft
(52.4361°N, 1.0300°W)
Time: 04:25:28
(UTC+01:00)

Envisat - Visible Passes

Search period start: 16 October 2019 00:00
Search period end: 26 October 2019 00:00
Orbit: 764 x 766 km, 98.1° (Epoch: 15 October)

Date Brightness Start Highest point End Pass type
(mag) Time Alt. Az. Time Alt. Az. Time Alt. Az.
16 Oct 6.7 06:24:57 10° ENE 06:26:09 11° E 06:27:20 10° E visible
16 Oct 3.8 19:21:38 10° S 19:26:37 57° W 19:31:39 10° NNW visible
17 Oct 3.0 18:44:44 10° SSE 18:49:48 76° ENE 18:54:55 10° NNW visible
17 Oct 5.7 20:25:53 10° SW 20:29:26 19° W 20:32:59 10° NW visible
18 Oct 6.1 06:48:40 10° NE 06:52:04 18° E 06:55:27 10° SE visible
18 Oct 4.7 19:47:37 10° SSW 19:52:16 35° W 19:56:57 10° NNW visible
19 Oct 3.4 19:10:16 10° S 19:15:19 69° WSW 19:20:25 10° NNW visible
19 Oct 6.2 20:53:37 10° WSW 20:55:19 12° W 20:57:02 10° WNW visible
20 Oct 3.0 18:33:33 10° SSE 18:38:34 63° ENE 18:43:36 10° N visible
20 Oct 5.5 20:14:03 10° SW 20:18:01 23° W 20:22:02 10° NW visible
21 Oct 6.2 06:37:52 10° NE 06:40:38 15° E 06:43:24 10° ESE visible
21 Oct 4.3 19:36:07 10° S 19:40:56 43° W 19:45:48 10° NNW visible
22 Oct 3.1 18:58:57 10° SSE 19:04:02 83° WSW 19:09:10 10° NNW visible
22 Oct 6.0 20:41:11 10° WSW 20:43:53 14° W 20:46:36 10° NW visible
23 Oct 5.9 07:02:28 10° NE 07:06:30 23° E 07:10:30 10° SE visible
23 Oct 3.2 18:22:25 10° SE 18:27:20 52° ENE 18:32:17 10° N visible
23 Oct 5.1 20:02:20 10° SSW 20:06:39 27° W 20:10:59 10° NW visible
24 Oct 6.5 06:27:24 10° ENE 06:29:12 12° E 06:31:00 10° ESE visible
24 Oct 3.9 19:24:39 10° S 19:29:36 52° W 19:34:36 10° NNW visible
25 Oct 3.0 18:47:41 10° SSE 18:52:46 82° ENE 18:57:53 10° NNW visible
25 Oct 5.8 20:29:06 10° SW 20:32:27 17° W 20:35:49 10° NW visible
